| time (UTC) | temp F | wind direction | speed MPH | gust MPH | rain 1hr in | rain 24hr in | rain mn in | humidity % | barometer mb |
| 20260831142705 | 73 | 346 | 1.0 | 3.0 | 0.00 | 0.06 | 0.00 | 83 | 1021.0 |
| 20260831142204 | 73 | 345 | 1.0 | 5.0 | 0.00 | 0.06 | 0.00 | 82 | 1021.0 |
| 20260831141706 | 73 | 350 | 1.0 | 3.0 | 0.00 | 0.06 | 0.00 | 81 | 1020.9 |
| 20260831141205 | 74 | 332 | 0.0 | 3.0 | 0.00 | 0.06 | 0.00 | 81 | 1020.9 |
| 20260831140704 | 74 | 329 | 1.0 | 3.0 | 0.00 | 0.06 | 0.00 | 82 | 1020.9 |
| 20260831135705 | 73 | 250 | 2.0 | 3.0 | 0.00 | 0.06 | 0.00 | 83 | 1020.8 |
| 20260831135204 | 73 | 324 | 0.0 | 1.0 | 0.00 | 0.06 | 0.00 | 84 | 1020.7 |
| 20260831134704 | 74 | 329 | 1.0 | 1.0 | 0.00 | 0.06 | 0.00 | 83 | 1020.8 |
| 20260831133704 | 73 | 335 | 0.0 | 1.0 | 0.00 | 0.06 | 0.00 | 88 | 1020.8 |
| 20260831132705 | 73 | 343 | 0.0 | 1.0 | 0.00 | 0.06 | 0.00 | 87 | 1020.6 |
| 20260831132205 | 72 | 343 | 0.0 | 3.0 | 0.00 | 0.06 | 0.00 | 87 | 1020.8 |
| 20260831131705 | 72 | 346 | 1.0 | 3.0 | 0.00 | 0.06 | 0.00 | 87 | 1020.7 |
| 20260831131205 | 72 | 244 | 1.0 | 3.0 | 0.00 | 0.06 | 0.00 | 88 | 1020.5 |
| 20260831130705 | 72 | 344 | 0.0 | 0.0 | 0.00 | 0.06 | 0.00 | 90 | 1020.7 |
| 20260831130205 | 71 | 344 | 0.0 | 1.0 | 0.00 | 0.06 | 0.00 | 90 | 1020.7 |
| 20260831125705 | 71 | 344 | 0.0 | 0.0 | 0.00 | 0.06 | 0.00 | 90 | 1020.7 |
| 20260831125204 | 71 | 344 | 0.0 | 1.0 | 0.00 | 0.06 | 0.00 | 91 | 1020.7 |
| 20260831124704 | 71 | 344 | 0.0 | 3.0 | 0.00 | 0.06 | 0.00 | 91 | 1020.8 |
| 20260831124205 | 71 | 349 | 1.0 | 3.0 | 0.00 | 0.06 | 0.00 | 91 | 1020.9 |
| 20260831123704 | 71 | 3 | 1.0 | 7.0 | 0.00 | 0.06 | 0.00 | 91 | 1020.8 |
| 20260831123204 | 71 | 349 | 1.0 | 3.0 | 0.00 | 0.06 | 0.00 | 92 | 1020.7 |
| 20260831122704 | 71 | 20 | 1.0 | 5.0 | 0.00 | 0.06 | 0.00 | 91 | 1020.7 |
| 20260831122205 | 71 | 38 | 1.0 | 5.0 | 0.00 | 0.06 | 0.00 | 90 | 1020.5 |
| 20260831121705 | 71 | 5 | 1.0 | 5.0 | 0.00 | 0.06 | 0.00 | 91 | 1020.6 |
| 20260831121205 | 72 | 358 | 2.0 | 5.0 | 0.00 | 0.06 | 0.00 | 90 | 1020.6 |
| 20260831120705 | 72 | 344 | 1.0 | 5.0 | 0.00 | 0.06 | 0.00 | 89 | 1020.4 |
| 20260831115204 | 71 | 333 | 2.0 | 3.0 | 0.00 | 0.06 | 0.00 | 91 | 1020.6 |
| 20260831114704 | 72 | 337 | 0.0 | 3.0 | 0.00 | 0.06 | 0.00 | 91 | 1020.4 |
| 20260831114204 | 71 | 318 | 0.0 | 0.0 | 0.00 | 0.06 | 0.00 | 93 | 1020.5 |
| 20260831113204 | 70 | 332 | 0.0 | 0.0 | 0.00 | 0.06 | 0.00 | 95 | 1020.2 |
| 20260831112204 | 70 | 332 | 0.0 | 0.0 | 0.00 | 0.06 | 0.00 | 95 | 1020.2 |
| 20260831111706 | 69 | 332 | 0.0 | 0.0 | 0.00 | 0.06 | 0.00 | 96 | 1020.2 |
| 20260831111205 | 69 | 332 | 0.0 | 3.0 | 0.00 | 0.06 | 0.00 | 95 | 1020.2 |
| 20260831110705 | 69 | 333 | 0.0 | 1.0 | 0.00 | 0.06 | 0.00 | 95 | 1019.9 |
| 20260831105204 | 69 | 332 | 0.0 | 0.0 | 0.00 | 0.06 | 0.00 | 94 | 1020.0 |
| 20260831104705 | 69 | 333 | 0.0 | 3.0 | 0.00 | 0.06 | 0.00 | 94 | 1020.1 |
| 20260831104204 | 69 | 349 | 0.0 | 3.0 | 0.00 | 0.06 | 0.00 | 94 | 1019.9 |
| 20260831103704 | 69 | 345 | 0.0 | 3.0 | 0.00 | 0.06 | 0.00 | 95 | 1020.0 |
| 20260831102704 | 69 | 345 | 0.0 | 3.0 | 0.00 | 0.06 | 0.00 | 95 | 1020.0 |
| 20260831102204 | 69 | 345 | 0.0 | 0.0 | 0.00 | 0.06 | 0.00 | 96 | 1019.6 |
| 20260831100205 | 69 | 322 | 1.0 | 5.0 | 0.00 | 0.06 | 0.00 | 97 | 1019.7 |
| 20260831095706 | 69 | 322 | 1.0 | 5.0 | 0.00 | 0.06 | 0.00 | 98 | 1019.5 |
| 20260831094704 | 69 | 314 | 0.0 | 1.0 | 0.00 | 0.06 | 0.00 | 99 | 1019.5 |
| 20260831094204 | 69 | 335 | 0.0 | 5.0 | 0.00 | 0.06 | 0.00 | 99 | 1019.4 |
| 20260831093205 | 70 | 336 | 1.0 | 3.0 | 0.00 | 0.06 | 0.00 | 99 | 1019.5 |
| 20260831092705 | 70 | 345 | 0.0 | 5.0 | 0.00 | 0.06 | 0.00 | 99 | 1019.4 |
| 20260831092204 | 70 | 5 | 1.0 | 7.0 | 0.00 | 0.06 | 0.00 | 99 | 1019.1 |
| 20260831091705 | 70 | 17 | 0.0 | 3.0 | 0.00 | 0.06 | 0.00 | 99 | 1019.1 |
| 20260831091205 | 70 | 345 | 0.0 | 8.0 | 0.00 | 0.06 | 0.00 | 99 | 1019.0 |
| 20260831090705 | 70 | 15 | 3.0 | 12.0 | 0.00 | 0.06 | 0.00 | 99 | 1019.1 |
| 20260831090205 | 69 | 7 | 1.0 | 12.0 | 0.00 | 0.06 | 0.00 | 99 | 1019.5 |
| 20260831085705 | 69 | 354 | 0.0 | 7.0 | 0.00 | 0.06 | 0.00 | 99 | 1019.1 |
| 20260831085206 | 69 | 5 | 1.0 | 7.0 | 0.00 | 0.06 | 0.00 | 99 | 1019.4 |
| 20260831084705 | 69 | 338 | 0.0 | 0.0 | 0.00 | 0.06 | 0.00 | 99 | 1019.3 |
| 20260831084205 | 69 | 338 | 0.0 | 5.0 | 0.00 | 0.06 | 0.00 | 99 | 1019.3 |
| 20260831083204 | 69 | 322 | 0.0 | 5.0 | 0.00 | 0.06 | 0.00 | 99 | 1019.2 |
| 20260831082705 | 69 | 319 | 0.0 | 0.0 | 0.00 | 0.06 | 0.00 | 99 | 1019.2 |
| 20260831082204 | 69 | 319 | 0.0 | 0.0 | 0.00 | 0.06 | 0.00 | 99 | 1019.3 |
| 20260831081704 | 69 | 319 | 0.0 | 0.0 | 0.00 | 0.06 | 0.00 | 99 | 1019.1 |
| 20260831081205 | 69 | 319 | 0.0 | 0.0 | 0.00 | 0.06 | 0.00 | 99 | 1019.1 |
| 20260831080705 | 69 | 321 | 0.0 | 0.0 | 0.00 | 0.06 | 0.00 | 99 | 1019.0 |
| 20260831080206 | 69 | 321 | 1.0 | 3.0 | 0.00 | 0.06 | 0.00 | 99 | 1019.0 |
| 20260831074705 | 69 | 321 | 0.0 | 1.0 | 0.00 | 0.06 | 0.00 | 99 | 1018.9 |
| 20260831074204 | 69 | 320 | 0.0 | 0.0 | 0.00 | 0.06 | 0.00 | 99 | 1019.2 |
| 20260831070705 | 69 | 320 | 0.0 | 0.0 | 0.00 | 0.06 | 0.00 | 99 | 1019.1 |
| 20260831070205 | 69 | 319 | 0.0 | 0.0 | 0.00 | 0.06 | 0.00 | 99 | 1019.4 |
| 20260831065705 | 69 | 319 | 0.0 | 0.0 | 0.00 | 0.06 | 0.00 | 99 | 1019.4 |
| 20260831065204 | 69 | 319 | 0.0 | 0.0 | 0.00 | 0.06 | 0.00 | 99 | 1019.3 |
| 20260831064704 | 69 | 319 | 0.0 | 0.0 | 0.00 | 0.06 | 0.00 | 99 | 1019.3 |
| 20260831064206 | 69 | 319 | 0.0 | 0.0 | 0.00 | 0.06 | 0.00 | 99 | 1019.5 |
| 20260831063205 | 69 | 319 | 0.0 | 0.0 | 0.00 | 0.06 | 0.00 | 99 | 1019.4 |
| 20260831062704 | 69 | 319 | 0.0 | 0.0 | 0.00 | 0.06 | 0.00 | 99 | 1019.5 |
| 20260831061704 | 69 | 319 | 0.0 | 0.0 | 0.00 | 0.06 | 0.00 | 99 | 1019.5 |
| 20260831060705 | 69 | 320 | 0.0 | 0.0 | 0.00 | 0.06 | 0.00 | 99 | 1019.6 |
| 20260831060204 | 69 | 319 | 0.0 | 0.0 | 0.00 | 0.06 | 0.00 | 99 | 1019.3 |
| 20260831055704 | 69 | 319 | 0.0 | 0.0 | 0.00 | 0.06 | 0.00 | 99 | 1019.3 |
| 20260831055205 | 70 | 319 | 0.0 | 0.0 | 0.00 | 0.06 | 0.00 | 99 | 1019.3 |
| 20260831054704 | 70 | 318 | 0.0 | 0.0 | 0.00 | 0.06 | 0.00 | 99 | 1019.3 |
| 20260831054205 | 70 | 318 | 0.0 | 0.0 | 0.00 | 0.06 | 0.00 | 99 | 1019.3 |
| 20260831053704 | 70 | 318 | 0.0 | 0.0 | 0.00 | 0.06 | 0.00 | 99 | 1019.3 |
| 20260831052704 | 70 | 318 | 0.0 | 0.0 | 0.00 | 0.06 | 0.00 | 99 | 1019.4 |
| 20260831051704 | 70 | 318 | 0.0 | 0.0 | 0.00 | 0.06 | 0.00 | 99 | 1019.4 |
| 20260831051205 | 70 | 318 | 0.0 | 0.0 | 0.00 | 0.06 | 0.00 | 99 | 1019.3 |
| 20260831050705 | 70 | 318 | 0.0 | 0.0 | 0.00 | 0.06 | 0.00 | 99 | 1019.4 |
| 20260831050204 | 70 | 318 | 0.0 | 0.0 | 0.00 | 0.06 | 0.00 | 99 | 1019.2 |
| 20260831045704 | 71 | 318 | 0.0 | 0.0 | 0.03 | 0.06 | 0.00 | 99 | 1019.3 |
| 20260831045205 | 71 | 318 | 0.0 | 0.0 | 0.03 | 0.06 | 0.00 | 99 | 1019.4 |
| 20260831044204 | 71 | 318 | 0.0 | 0.0 | 0.03 | 0.06 | 0.00 | 98 | 1019.3 |
| 20260831043704 | 71 | 318 | 0.0 | 0.0 | 0.03 | 0.06 | 0.00 | 97 | 1019.3 |
| 20260831043204 | 72 | 318 | 0.0 | 0.0 | 0.03 | 0.06 | 0.00 | 97 | 1019.4 |
| 20260831042704 | 72 | 331 | 0.0 | 3.0 | 0.03 | 0.06 | 0.00 | 97 | 1019.5 |
| 20260831042204 | 72 | 331 | 1.0 | 5.0 | 0.03 | 0.06 | 0.00 | 97 | 1019.4 |
| 20260831041705 | 71 | 339 | 0.0 | 3.0 | 0.03 | 0.06 | 0.00 | 97 | 1019.6 |
| 20260831040205 | 71 | 309 | 0.0 | 0.0 | 0.03 | 0.06 | 0.00 | 98 | 1019.7 |
| 20260831035704 | 71 | 309 | 0.0 | 0.0 | 0.00 | 0.03 | 0.03 | 98 | 1019.6 |
| 20260831035204 | 71 | 311 | 0.0 | 1.0 | 0.00 | 0.03 | 0.03 | 98 | 1019.5 |
| 20260831034704 | 71 | 311 | 0.0 | 1.0 | 0.00 | 0.03 | 0.03 | 98 | 1019.4 |
| 20260831034205 | 71 | 294 | 0.0 | 0.0 | 0.00 | 0.03 | 0.03 | 98 | 1019.4 |
| 20260831033705 | 71 | 294 | 0.0 | 0.0 | 0.00 | 0.03 | 0.03 | 98 | 1019.4 |
| 20260831033205 | 71 | 294 | 0.0 | 0.0 | 0.00 | 0.03 | 0.03 | 97 | 1019.6 |
| 20260831032704 | 71 | 294 | 0.0 | 1.0 | 0.00 | 0.03 | 0.03 | 97 | 1019.5 |
| 20260831032205 | 71 | 294 | 0.0 | 1.0 | 0.00 | 0.03 | 0.03 | 97 | 1019.6 |
| 20260831031704 | 71 | 294 | 0.0 | 0.0 | 0.00 | 0.03 | 0.03 | 97 | 1019.7 |
| 20260831031204 | 71 | 294 | 0.0 | 0.0 | 0.00 | 0.03 | 0.03 | 96 | 1019.7 |
| 20260831030705 | 71 | 294 | 0.0 | 0.0 | 0.00 | 0.03 | 0.03 | 96 | 1019.8 |
| 20260831030204 | 72 | 294 | 0.0 | 0.0 | 0.00 | 0.03 | 0.03 | 95 | 1019.7 |
| 20260831025705 | 72 | 294 | 0.0 | 0.0 | 0.00 | 0.03 | 0.03 | 95 | 1019.8 |
| 20260831025204 | 72 | 294 | 0.0 | 0.0 | 0.00 | 0.03 | 0.03 | 95 | 1019.8 |
| 20260831024706 | 72 | 293 | 0.0 | 1.0 | 0.00 | 0.03 | 0.03 | 95 | 1019.9 |
| 20260831024205 | 73 | 285 | 1.0 | 1.0 | 0.00 | 0.03 | 0.03 | 95 | 1020.0 |
| 20260831023705 | 73 | 294 | 0.0 | 1.0 | 0.00 | 0.03 | 0.03 | 95 | 1020.0 |
| 20260831023205 | 73 | 287 | 0.0 | 5.0 | 0.00 | 0.03 | 0.03 | 95 | 1020.0 |
| 20260831022704 | 74 | 285 | 0.0 | 1.0 | 0.00 | 0.03 | 0.03 | 95 | 1020.2 |
| 20260831022204 | 74 | 287 | 1.0 | 8.0 | 0.00 | 0.03 | 0.03 | 95 | 1020.0 |
| 20260831021704 | 74 | 253 | 2.0 | 5.0 | 0.00 | 0.03 | 0.03 | 96 | 1020.0 |
| 20260831021204 | 74 | 284 | 0.0 | 3.0 | 0.00 | 0.03 | 0.03 | 98 | 1019.9 |
| 20260831020205 | 74 | 284 | 0.0 | 5.0 | 0.00 | 0.03 | 0.03 | 98 | 1019.8 |
| 20260831015705 | 74 | 254 | 1.0 | 5.0 | 0.00 | 0.03 | 0.03 | 99 | 1019.8 |
| 20260831015206 | 74 | 293 | 0.0 | 3.0 | 0.00 | 0.03 | 0.03 | 99 | 1019.5 |
| 20260831014705 | 74 | 265 | 1.0 | 3.0 | 0.00 | 0.03 | 0.03 | 99 | 1019.7 |
| 20260831014206 | 74 | 275 | 0.0 | 3.0 | 0.00 | 0.03 | 0.03 | 99 | 1019.9 |
| 20260831012704 | 74 | 300 | 0.0 | 0.0 | 0.00 | 0.03 | 0.03 | 99 | 1019.7 |
| 20260831011204 | 74 | 300 | 0.0 | 0.0 | 0.00 | 0.03 | 0.03 | 99 | 1019.7 |
| 20260831010705 | 74 | 300 | 0.0 | 0.0 | 0.00 | 0.03 | 0.03 | 99 | 1019.6 |
| 20260831010204 | 74 | 296 | 0.0 | 0.0 | 0.00 | 0.03 | 0.03 | 99 | 1019.5 |
| 20260831005705 | 74 | 296 | 0.0 | 0.0 | 0.00 | 0.03 | 0.03 | 99 | 1019.4 |
| 20260831005205 | 74 | 296 | 0.0 | 0.0 | 0.00 | 0.03 | 0.03 | 99 | 1019.3 |
| 20260831004706 | 75 | 296 | 0.0 | 0.0 | 0.00 | 0.03 | 0.03 | 99 | 1019.2 |
| 20260831003705 | 75 | 296 | 0.0 | 0.0 | 0.00 | 0.03 | 0.03 | 99 | 1019.3 |
| 20260831002705 | 75 | 293 | 0.0 | 0.0 | 0.00 | 0.03 | 0.03 | 98 | 1019.0 |
| 20260831002204 | 75 | 292 | 0.0 | 0.0 | 0.00 | 0.03 | 0.03 | 98 | 1018.9 |
| 20260831001705 | 75 | 291 | 0.0 | 0.0 | 0.00 | 0.03 | 0.03 | 97 | 1019.0 |
| 20260831001204 | 76 | 291 | 0.0 | 0.0 | 0.00 | 0.03 | 0.03 | 97 | 1019.1 |
| 20260831000704 | 75 | 291 | 0.0 | 0.0 | 0.00 | 0.03 | 0.03 | 97 | 1018.9 |
| 20260831000206 | 76 | 291 | 0.0 | 0.0 | 0.00 | 0.03 | 0.03 | 97 | 1018.9 |
| 20260830235704 | 76 | 291 | 0.0 | 0.0 | 0.00 | 0.03 | 0.03 | 97 | 1019.1 |
| 20260830235204 | 76 | 291 | 0.0 | 0.0 | 0.00 | 0.03 | 0.03 | 96 | 1019.0 |
| 20260830234205 | 76 | 290 | 0.0 | 0.0 | 0.00 | 0.03 | 0.03 | 96 | 1018.6 |
| 20260830233704 | 76 | 290 | 0.0 | 0.0 | 0.00 | 0.03 | 0.03 | 95 | 1018.9 |
| 20260830233204 | 76 | 290 | 0.0 | 0.0 | 0.00 | 0.03 | 0.03 | 95 | 1018.9 |
| 20260830232705 | 76 | 290 | 0.0 | 0.0 | 0.00 | 0.03 | 0.03 | 94 | 1019.0 |
| 20260830232205 | 76 | 290 | 0.0 | 0.0 | 0.00 | 0.03 | 0.03 | 94 | 1019.0 |
| 20260830231705 | 77 | 290 | 0.0 | 0.0 | 0.00 | 0.03 | 0.03 | 94 | 1019.0 |
| 20260830231204 | 77 | 290 | 0.0 | 0.0 | 0.00 | 0.03 | 0.03 | 93 | 1019.0 |
| 20260830230704 | 77 | 290 | 0.0 | 0.0 | 0.00 | 0.03 | 0.03 | 93 | 1018.9 |
| 20260830230205 | 78 | 290 | 0.0 | 0.0 | 0.00 | 0.03 | 0.03 | 92 | 1018.9 |
| 20260830225704 | 78 | 290 | 0.0 | 0.0 | 0.00 | 0.03 | 0.03 | 92 | 1019.0 |
| 20260830225204 | 78 | 290 | 0.0 | 0.0 | 0.00 | 0.03 | 0.03 | 91 | 1018.7 |
| 20260830224204 | 79 | 290 | 0.0 | 1.0 | 0.00 | 0.03 | 0.03 | 90 | 1018.9 |
| 20260830223704 | 79 | 287 | 0.0 | 1.0 | 0.00 | 0.03 | 0.03 | 89 | 1018.9 |
| 20260830223206 | 79 | 286 | 0.0 | 0.0 | 0.00 | 0.03 | 0.03 | 88 | 1018.9 |
| 20260830222704 | 80 | 285 | 0.0 | 0.0 | 0.00 | 0.03 | 0.03 | 87 | 1018.6 |
| 20260830222204 | 80 | 284 | 0.0 | 3.0 | 0.00 | 0.03 | 0.03 | 87 | 1018.8 |
| 20260830221704 | 80 | 282 | 1.0 | 3.0 | 0.00 | 0.03 | 0.03 | 86 | 1018.7 |
| 20260830221205 | 80 | 282 | 0.0 | 3.0 | 0.00 | 0.03 | 0.03 | 87 | 1018.9 |
| 20260830220705 | 81 | 279 | 1.0 | 5.0 | 0.00 | 0.03 | 0.03 | 86 | 1018.6 |
| 20260830215705 | 81 | 281 | 0.0 | 1.0 | 0.00 | 0.03 | 0.03 | 85 | 1018.7 |
| 20260830215206 | 81 | 282 | 0.0 | 1.0 | 0.00 | 0.03 | 0.03 | 86 | 1018.7 |
| 20260830214704 | 81 | 282 | 0.0 | 1.0 | 0.00 | 0.03 | 0.03 | 86 | 1018.6 |
| 20260830214204 | 81 | 280 | 0.0 | 1.0 | 0.00 | 0.03 | 0.03 | 86 | 1018.4 |
| 20260830213204 | 81 | 282 | 0.0 | 1.0 | 0.00 | 0.03 | 0.03 | 86 | 1018.3 |
| 20260830212704 | 80 | 282 | 0.0 | 0.0 | 0.00 | 0.03 | 0.03 | 87 | 1018.4 |
| 20260830212205 | 80 | 282 | 0.0 | 1.0 | 0.00 | 0.03 | 0.03 | 86 | 1018.8 |
| 20260830210704 | 81 | 261 | 2.0 | 7.0 | 0.00 | 0.03 | 0.03 | 83 | 1018.7 |
| 20260830210204 | 81 | 280 | 1.0 | 5.0 | 0.00 | 0.03 | 0.03 | 84 | 1018.7 |
| 20260830205705 | 81 | 287 | 0.0 | 3.0 | 0.00 | 0.03 | 0.03 | 84 | 1018.6 |
| 20260830205205 | 81 | 282 | 2.0 | 3.0 | 0.00 | 0.03 | 0.03 | 83 | 1018.7 |
| 20260830204204 | 82 | 258 | 1.0 | 3.0 | 0.00 | 0.03 | 0.03 | 84 | 1018.8 |
| 20260830203204 | 82 | 284 | 0.0 | 1.0 | 0.00 | 0.03 | 0.03 | 85 | 1018.7 |
| 20260830202204 | 80 | 260 | 2.0 | 5.0 | 0.00 | 0.03 | 0.03 | 85 | 1018.8 |
| 20260830201704 | 80 | 286 | 1.0 | 3.0 | 0.00 | 0.03 | 0.03 | 85 | 1018.6 |
| 20260830201205 | 81 | 265 | 2.0 | 7.0 | 0.00 | 0.03 | 0.03 | 86 | 1018.7 |
| 20260830200705 | 81 | 263 | 2.0 | 5.0 | 0.00 | 0.03 | 0.03 | 84 | 1018.8 |
| 20260830200205 | 81 | 292 | 1.0 | 5.0 | 0.00 | 0.03 | 0.03 | 85 | 1019.0 |
| 20260830195704 | 81 | 293 | 1.0 | 5.0 | 0.00 | 0.03 | 0.03 | 88 | 1019.0 |
| 20260830195205 | 81 | 292 | 0.0 | 5.0 | 0.00 | 0.03 | 0.03 | 86 | 1019.0 |
| 20260830194706 | 81 | 286 | 0.0 | 5.0 | 0.02 | 0.03 | 0.03 | 86 | 1019.1 |
| 20260830193704 | 81 | 296 | 0.0 | 1.0 | 0.03 | 0.03 | 0.03 | 89 | 1019.1 |
| 20260830193204 | 80 | 287 | 0.0 | 5.0 | 0.03 | 0.03 | 0.03 | 93 | 1019.6 |
| 20260830192704 | 78 | 284 | 1.0 | 5.0 | 0.03 | 0.03 | 0.03 | 95 | 1019.5 |
| 20260830192206 | 77 | 310 | 0.0 | 5.0 | 0.03 | 0.03 | 0.03 | 97 | 1019.6 |
| 20260830191704 | 77 | 313 | 1.0 | 3.0 | 0.03 | 0.03 | 0.03 | 98 | 1019.6 |
| 20260830191204 | 77 | 327 | 1.0 | 3.0 | 0.03 | 0.03 | 0.03 | 98 | 1019.8 |
| 20260830190204 | 76 | 311 | 0.0 | 1.0 | 0.03 | 0.03 | 0.03 | 96 | 1020.0 |
| 20260830185704 | 76 | 308 | 0.0 | 1.0 | 0.03 | 0.03 | 0.03 | 94 | 1019.9 |
| 20260830185204 | 77 | 296 | 0.0 | 1.0 | 0.03 | 0.03 | 0.03 | 93 | 1019.9 |
| 20260830184705 | 78 | 282 | 1.0 | 1.0 | 0.01 | 0.01 | 0.01 | 90 | 1019.9 |
| 20260830184205 | 80 | 284 | 1.0 | 1.0 | 0.00 | 0.00 | 0.00 | 86 | 1019.9 |
| 20260830183704 | 81 | 292 | 0.0 | 3.0 | 0.00 | 0.00 | 0.00 | 85 | 1019.8 |
| 20260830183205 | 81 | 263 | 1.0 | 3.0 | 0.00 | 0.00 | 0.00 | 83 | 1020.0 |
| 20260830182704 | 81 | 296 | 1.0 | 1.0 | 0.00 | 0.00 | 0.00 | 83 | 1020.3 |
| 20260830182204 | 81 | 277 | 0.0 | 5.0 | 0.00 | 0.00 | 0.00 | 85 | 1020.2 |
| 20260830181204 | 82 | 280 | 1.0 | 3.0 | 0.00 | 0.00 | 0.00 | 81 | 1020.2 |
| 20260830180704 | 83 | 262 | 2.0 | 3.0 | 0.00 | 0.00 | 0.00 | 81 | 1020.5 |
| 20260830180205 | 81 | 265 | 1.0 | 5.0 | 0.00 | 0.00 | 0.00 | 83 | 1020.2 |
| 20260830175705 | 80 | 280 | 0.0 | 3.0 | 0.00 | 0.00 | 0.00 | 85 | 1020.4 |
| 20260830175204 | 80 | 279 | 1.0 | 3.0 | 0.00 | 0.00 | 0.00 | 84 | 1020.7 |
| 20260830174704 | 81 | 270 | 1.0 | 3.0 | 0.00 | 0.00 | 0.00 | 84 | 1020.6 |
| 20260830172705 | 81 | 286 | 0.0 | 3.0 | 0.00 | 0.00 | 0.00 | 84 | 1020.8 |
| 20260830172204 | 81 | 290 | 1.0 | 3.0 | 0.00 | 0.00 | 0.00 | 85 | 1020.8 |
| 20260830171704 | 80 | 292 | 1.0 | 3.0 | 0.00 | 0.00 | 0.00 | 85 | 1020.7 |
| 20260830171204 | 79 | 276 | 1.0 | 3.0 | 0.00 | 0.00 | 0.00 | 86 | 1020.9 |
| 20260830170704 | 78 | 277 | 1.0 | 3.0 | 0.00 | 0.00 | 0.00 | 87 | 1021.0 |
| 20260830170205 | 79 | 283 | 0.0 | 3.0 | 0.00 | 0.00 | 0.00 | 86 | 1020.8 |
| 20260830165704 | 79 | 278 | 1.0 | 1.0 | 0.00 | 0.00 | 0.00 | 86 | 1021.0 |
| 20260830164704 | 79 | 274 | 1.0 | 5.0 | 0.00 | 0.00 | 0.00 | 86 | 1021.0 |
| 20260830164204 | 80 | 281 | 1.0 | 3.0 | 0.00 | 0.00 | 0.00 | 84 | 1021.1 |
| 20260830163704 | 80 | 287 | 1.0 | 1.0 | 0.00 | 0.00 | 0.00 | 84 | 1021.2 |
| 20260830163204 | 80 | 286 | 1.0 | 3.0 | 0.00 | 0.00 | 0.00 | 84 | 1021.2 |
| 20260830162704 | 81 | 291 | 1.0 | 3.0 | 0.00 | 0.00 | 0.00 | 85 | 1021.2 |
| 20260830162204 | 80 | 239 | 1.0 | 3.0 | 0.00 | 0.00 | 0.00 | 84 | 1021.4 |
| 20260830161205 | 80 | 203 | 2.0 | 7.0 | 0.00 | 0.00 | 0.00 | 85 | 1021.2 |
| 20260830160704 | 78 | 237 | 2.0 | 7.0 | 0.00 | 0.00 | 0.00 | 86 | 1021.2 |
| 20260830155706 | 78 | 284 | 1.0 | 5.0 | 0.00 | 0.00 | 0.00 | 87 | 1021.4 |
| 20260830155204 | 77 | 311 | 1.0 | 5.0 | 0.00 | 0.00 | 0.00 | 89 | 1021.5 |
| 20260830154704 | 76 | 299 | 1.0 | 3.0 | 0.00 | 0.00 | 0.00 | 91 | 1021.6 |
| 20260830153704 | 74 | 286 | 0.0 | 1.0 | 0.00 | 0.00 | 0.00 | 92 | 1021.6 |
| 20260830153205 | 75 | 286 | 0.0 | 1.0 | 0.00 | 0.00 | 0.00 | 91 | 1021.5 |
| 20260830152704 | 75 | 288 | 1.0 | 3.0 | 0.00 | 0.00 | 0.00 | 90 | 1021.8 |
| 20260830152206 | 76 | 279 | 1.0 | 3.0 | 0.00 | 0.00 | 0.00 | 89 | 1021.9 |
| 20260830151705 | 76 | 311 | 0.0 | 1.0 | 0.00 | 0.00 | 0.00 | 89 | 1021.9 |
| 20260830145705 | 77 | 276 | 1.0 | 3.0 | 0.00 | 0.00 | 0.00 | 88 | 1021.7 |
| 20260830144705 | 77 | 285 | 0.0 | 1.0 | 0.00 | 0.00 | 0.00 | 87 | 1021.8 |
| 20260830143704 | 76 | 248 | 2.0 | 3.0 | 0.00 | 0.00 | 0.00 | 87 | 1021.6 |